CHPR20 KFSM-

Flight info

Callsign CHPR20
Flight time N/A
Altitude VFR
Route VFR NORTH
Aircraft B407/L-DOV/C

Departure

Time 2026-04-24 09:47
Airport Fort Smith Regional Airport (KFSM)

Arrival

Time N/A
Airport -
Time Latitude Longitude Altitude Speed Heading
2026-04-24 09:37 35.33658 -94.37107 456 ft 0 kts 79°
2026-04-24 09:43 35.33658 -94.37104 456 ft 3 kts 79°
2026-04-24 09:43 35.33643 -94.37094 456 ft 5 kts 212°
2026-04-24 09:43 35.33623 -94.37144 457 ft 6 kts 198°
2026-04-24 09:44 35.33595 -94.37181 458 ft 9 kts 261°
2026-04-24 09:44 35.33583 -94.37279 459 ft 14 kts 261°
2026-04-24 09:44 35.33567 -94.37411 461 ft 17 kts 262°
2026-04-24 09:44 35.33549 -94.37565 463 ft 19 kts 262°
2026-04-24 09:45 35.33527 -94.37735 466 ft 21 kts 261°
2026-04-24 09:45 35.33506 -94.37914 469 ft 21 kts 262°
2026-04-24 09:45 35.33481 -94.38086 471 ft 12 kts 261°
2026-04-24 09:45 35.33429 -94.38140 472 ft 11 kts 176°
2026-04-24 09:46 35.33364 -94.38105 473 ft 11 kts 87°
2026-04-24 09:46 35.33407 -94.37768 471 ft 76 kts 81°
2026-04-24 09:46 35.33485 -94.37128 683 ft 89 kts 86°
2026-04-24 09:46 35.33548 -94.36379 943 ft 87 kts 92°
2026-04-24 09:47 35.33604 -94.35633 1184 ft 84 kts 92°
2026-04-24 09:47 35.33678 -94.34877 1309 ft 94 kts 90°
2026-04-24 09:47 35.33767 -94.34141 1720 ft 65 kts 94°
2026-04-24 09:47 35.33881 -94.33395 1784 ft 97 kts 94°
2026-04-24 09:48 35.34003 -94.32560 1926 ft 102 kts 93°
2026-04-24 09:48 35.34115 -94.31701 2056 ft 98 kts 94°
2026-04-24 09:48 35.34246 -94.30907 2214 ft 100 kts 93°
2026-04-24 09:48 35.34369 -94.30053 2364 ft 102 kts 96°
2026-04-24 09:49 35.34488 -94.29163 2488 ft 108 kts 95°
2026-04-24 09:49 35.34609 -94.28248 2602 ft 108 kts 97°
2026-04-24 09:49 35.34744 -94.27341 2769 ft 113 kts 97°
2026-04-24 09:49 35.34896 -94.26387 2934 ft 113 kts 96°
2026-04-24 09:50 35.35065 -94.25449 3109 ft 115 kts 95°
2026-04-24 09:50 35.35243 -94.24489 3314 ft 113 kts 94°
2026-04-24 09:50 35.35439 -94.23550 3488 ft 116 kts 92°
2026-04-24 09:50 35.35608 -94.22607 3714 ft 111 kts 99°
2026-04-24 09:51 35.35680 -94.21618 3794 ft 127 kts 105°
2026-04-24 09:51 35.35682 -94.20426 3872 ft 150 kts 105°
2026-04-24 09:51 35.35663 -94.19145 4089 ft 151 kts 105°
2026-04-24 09:51 35.35645 -94.17865 4365 ft 151 kts 105°
2026-04-24 09:52 35.35632 -94.16570 4624 ft 153 kts 104°
2026-04-24 09:52 35.35630 -94.15267 4862 ft 155 kts 103°
2026-04-24 09:52 35.35621 -94.13937 5108 ft 157 kts 103°
2026-04-24 09:52 35.35599 -94.12600 5403 ft 156 kts 103°
2026-04-24 09:53 35.35556 -94.11267 5674 ft 159 kts 104°
2026-04-24 09:53 35.35490 -94.09927 5958 ft 160 kts 105°
2026-04-24 09:53 35.35388 -94.08572 6238 ft 160 kts 107°
2026-04-24 09:53 35.35236 -94.07229 6531 ft 158 kts 109°
2026-04-24 09:54 35.35042 -94.05904 6812 ft 158 kts 111°
2026-04-24 09:54 35.34811 -94.04589 7091 ft 158 kts 113°
2026-04-24 09:54 35.34310 -94.03555 7273 ft 125 kts 175°
2026-04-24 09:54 35.33953 -94.04082 7436 ft 119 kts 287°
2026-04-24 09:55 35.34316 -94.04883 7848 ft 79 kts 248°
2026-04-24 09:55 35.34491 -94.05398 6361 ft 111 kts 255°
2026-04-24 09:55 35.34474 -94.06236 6817 ft 100 kts 261°
2026-04-24 09:55 35.34455 -94.07126 7021 ft 105 kts 259°
2026-04-24 09:56 35.34378 -94.07979 7371 ft 99 kts 255°
2026-04-24 09:56 35.34239 -94.08840 7494 ft 110 kts 257°
2026-04-24 09:56 35.34286 -94.09792 7669 ft 115 kts 269°
2026-04-24 09:56 35.34377 -94.10755 7899 ft 115 kts 268°
2026-04-24 09:57 35.34462 -94.11767 8016 ft 116 kts 268°
2026-04-24 09:57 35.34510 -94.12693 8433 ft 102 kts 264°
2026-04-24 09:57 35.34526 -94.13565 8593 ft 109 kts 263°
2026-04-24 09:57 35.34464 -94.14538 8774 ft 110 kts 259°
2026-04-24 09:58 35.34318 -94.15384 9193 ft 102 kts 252°
2026-04-24 09:58 35.34097 -94.16268 9316 ft 111 kts 261°
2026-04-24 09:58 35.34015 -94.17188 9636 ft 104 kts 258°
2026-04-24 09:58 35.33855 -94.18063 9865 ft 109 kts 256°
2026-04-24 09:59 35.33692 -94.19003 10043 ft 113 kts 255°
2026-04-24 09:59 35.33480 -94.19901 10381 ft 107 kts 250°
2026-04-24 09:59 35.33258 -94.20787 10510 ft 118 kts 259°
2026-04-24 09:59 35.33257 -94.21877 10378 ft 134 kts 273°
2026-04-24 10:00 35.33401 -94.23099 9428 ft 165 kts 273°
2026-04-24 10:00 35.33543 -94.24555 8368 ft 170 kts 272°
2026-04-24 10:00 35.33670 -94.25978 7211 ft 167 kts 271°
2026-04-24 10:00 35.33844 -94.27363 6102 ft 164 kts 271°
2026-04-24 10:01 35.34031 -94.28688 5571 ft 150 kts 273°
2026-04-24 10:01 35.34267 -94.29917 5108 ft 143 kts 271°
2026-04-24 10:01 35.34425 -94.31187 3788 ft 160 kts 263°
2026-04-24 10:01 35.34407 -94.32538 2909 ft 156 kts 253°
2026-04-24 10:02 35.34207 -94.33856 2059 ft 162 kts 249°
2026-04-24 10:02 35.33940 -94.35209 1249 ft 165 kts 252°
2026-04-24 10:02 35.33690 -94.36624 521 ft 169 kts 259°
2026-04-24 10:02 35.34153 -94.36988 670 ft 130 kts 80°
2026-04-24 10:03 35.34546 -94.36743 629 ft 112 kts 244°
2026-04-24 10:03 35.34028 -94.36827 713 ft 106 kts 206°
2026-04-24 10:03 35.33562 -94.36715 513 ft 119 kts 78°
2026-04-24 10:03 35.33809 -94.35833 630 ft 104 kts 77°
2026-04-24 10:04 35.33640 -94.35938 591 ft 99 kts 265°
2026-04-24 10:04 35.33552 -94.36671 454 ft 66 kts 262°
2026-04-24 10:04 35.33507 -94.37053 455 ft 28 kts 261°
2026-04-24 10:04 35.33595 -94.37163 457 ft 27 kts 32°
2026-04-24 10:05 35.33667 -94.37095 454 ft 0 kts 89°
2026-04-24 10:05 35.33670 -94.37042 455 ft 9 kts 46°
2026-04-24 10:05 35.33683 -94.37090 454 ft 8 kts 275°
2026-04-24 10:05 35.33683 -94.37096 453 ft 0 kts 275°
2026-04-24 10:06 35.33682 -94.37084 453 ft 0 kts 275°
2026-04-24 10:06 35.33585 -94.37458 562 ft 62 kts 225°
2026-04-24 10:06 35.33415 -94.37147 639 ft 115 kts 46°
2026-04-24 10:07 35.34149 -94.36551 662 ft 125 kts
2026-04-24 10:07 35.34058 -94.37078 624 ft 119 kts 200°
2026-04-24 10:07 35.33228 -94.37073 696 ft 113 kts 181°
2026-04-24 10:07 35.33507 -94.36783 558 ft 132 kts 314°
2026-04-24 10:08 35.33715 -94.37331 1234 ft 43 kts 183°
2026-04-24 10:08 35.33707 -94.36457 565 ft 117 kts 78°
2026-04-24 10:08 35.33450 -94.35982 598 ft 86 kts 184°
2026-04-24 10:08 35.33059 -94.35426 686 ft 125 kts 88°
2026-04-24 10:09 35.33662 -94.35010 899 ft 125 kts 296°
2026-04-24 10:09 35.33629 -94.36035 498 ft 113 kts 261°
2026-04-24 10:09 35.33536 -94.36866 457 ft 85 kts 263°
2026-04-24 10:09 35.33458 -94.37537 535 ft 91 kts 262°
2026-04-24 10:10 35.33328 -94.38321 890 ft 107 kts 253°
2026-04-24 10:10 35.33104 -94.38152 1075 ft 119 kts 61°
2026-04-24 10:10 35.33330 -94.37151 691 ft 131 kts 19°
2026-04-24 10:10 35.33277 -94.37385 858 ft 99 kts 152°
2026-04-24 10:11 35.33235 -94.36802 803 ft 146 kts 10°
2026-04-24 10:11 35.33616 -94.37570 882 ft 119 kts 279°
2026-04-24 10:11 35.33462 -94.37889 510 ft 125 kts 73°
2026-04-24 10:11 35.33765 -94.36848 531 ft 125 kts 97°
2026-04-24 10:12 35.33423 -94.36358 1019 ft 91 kts 147°